Location: Heilwood
(40.6210°N, 78.9150°W)
Time: 04:25:27
(UTC-04:00)

BREEZE-M DEB (TANK) - Visible Passes

Search period start: 31 October 2014 00:00
Search period end: 09 November 2014 23:00
Orbit: 284 x 16038 km, 49.5° (Epoch: 30 October)

Date Brightness Start Highest point End Pass type
(mag) Time Alt. Az. Time Alt. Az. Time Alt. Az.
31 Oct 8.8 15:29:14 10° SW 16:07:01 88° NW 18:53:34 10° E visible
31 Oct 8.2 20:52:58 10° WNW 23:15:52 71° WSW 23:47:27 58° SSW visible
01 Nov 8.7 15:44:01 10° WSW 16:25:32 84° NNW 19:11:31 10° E visible
01 Nov 8.3 21:10:06 10° WNW 23:30:42 66° WSW 00:02:25 54° SSW visible
02 Nov 8.7 14:58:54 10° WSW 15:45:04 82° NNW 18:26:31 13° E visible
02 Nov 8.3 20:27:21 10° WNW 22:44:45 61° WSW 23:17:26 50° SSW visible
03 Nov 8.6 15:13:53 10° WSW 16:05:53 79° NNW 18:41:36 15° E visible
03 Nov 8.3 20:44:42 10° NW 22:58:03 56° W 23:32:32 45° SW visible
04 Nov 8.5 15:28:56 10° WSW 16:28:20 78° N 18:56:46 17° ESE visible
04 Nov 8.3 21:02:12 10° NW 23:10:40 51° W 23:47:44 40° SW visible
05 Nov 8.5 15:44:06 10° W 16:52:47 77° N 19:12:02 19° ESE visible
05 Nov 8.4 21:19:51 10° NW 23:22:40 46° W 00:03:01 35° SW visible
06 Nov 8.4 15:59:21 10° W 17:19:24 77° N 19:27:23 20° ESE visible
06 Nov 8.4 21:37:42 10° NW 23:34:08 42° W 00:18:25 30° SW visible
07 Nov 8.4 16:14:41 10° W 17:47:15 79° NNE 19:42:50 22° ESE visible
07 Nov 8.5 21:55:49 10° NW 23:45:06 37° W 00:33:54 24° SW visible
08 Nov 8.3 16:30:06 10° W 18:14:18 81° NNE 19:58:25 22° SE visible
08 Nov 8.5 22:14:16 10° NW 23:55:40 33° W 00:49:32 19° WSW visible
09 Nov 8.3 16:45:37 10° W 18:39:08 83° NE 20:14:09 22° SE visible
09 Nov 10.2 22:33:13 10° NW 23:00:00 19° NW 23:00:00 19° NW visible
